TimeCDT,TemperatureF,Dew PointF,Humidity,Sea Level PressureIn,VisibilityMPH,Wind Direction,Wind SpeedMPH,Gust SpeedMPH,PrecipitationIn,Events,Conditions,WindDirDegrees,DateUTC
12:15 AM,69.8,57.2,64,30.13,10.0,ESE,8.1,-,N/A,,Mostly Cloudy,120,2013-07-30 05:15:00
12:35 AM,69.8,57.2,64,30.13,10.0,ESE,4.6,-,N/A,,Overcast,110,2013-07-30 05:35:00
12:55 AM,69.8,57.2,64,30.12,10.0,ESE,4.6,-,N/A,,Overcast,110,2013-07-30 05:55:00
1:15 AM,69.8,57.2,64,30.12,10.0,SE,6.9,-,N/A,,Overcast,140,2013-07-30 06:15:00
1:35 AM,69.8,59.0,68,30.11,10.0,SE,6.9,-,N/A,,Overcast,130,2013-07-30 06:35:00
1:55 AM,69.8,60.8,73,30.11,10.0,SE,9.2,-,N/A,,Mostly Cloudy,130,2013-07-30 06:55:00
2:15 AM,69.8,60.8,73,30.11,10.0,SSE,9.2,-,N/A,,Overcast,150,2013-07-30 07:15:00
2:35 AM,69.8,60.8,73,30.11,10.0,SSE,9.2,-,N/A,,Overcast,150,2013-07-30 07:35:00
2:55 AM,68.0,62.6,83,30.11,10.0,SSE,9.2,16.1,N/A,,Overcast,150,2013-07-30 07:55:00
3:15 AM,66.2,62.6,88,30.12,5.0,SSE,11.5,-,0.04,Rain,Rain,150,2013-07-30 08:15:00
3:35 AM,64.4,62.6,94,30.12,10.0,SE,5.8,-,0.11,Rain,Light Rain,140,2013-07-30 08:35:00
3:55 AM,64.4,64.4,100,30.11,3.0,SE,5.8,-,0.25,Rain,Heavy Rain,130,2013-07-30 08:55:00
4:15 AM,64.4,64.4,100,30.10,7.0,SE,8.1,-,0.15,Rain,Rain,130,2013-07-30 09:15:00
4:35 AM,64.4,64.4,100,30.10,7.0,SE,5.8,-,0.20,Rain,Rain,130,2013-07-30 09:35:00
4:55 AM,64.4,64.4,100,30.10,10.0,SE,8.1,-,0.22,Rain,Rain,130,2013-07-30 09:55:00
5:15 AM,64.4,64.4,100,30.09,5.0,ESE,6.9,-,N/A,Rain,Light Rain,120,2013-07-30 10:15:00
5:35 AM,64.4,64.4,100,30.09,7.0,ESE,9.2,-,0.01,,Light Drizzle,120,2013-07-30 10:35:00
5:55 AM,64.4,64.4,100,30.08,10.0,SE,10.4,16.1,0.01,Rain,Light Rain,130,2013-07-30 10:55:00
6:15 AM,64.4,64.4,100,30.09,10.0,SE,10.4,-,0.01,,Overcast,130,2013-07-30 11:15:00
6:35 AM,64.4,64.4,100,30.09,10.0,SE,9.2,-,0.01,Rain,Light Rain,140,2013-07-30 11:35:00
6:55 AM,64.4,62.6,94,30.09,2.0,ESE,8.1,-,0.18,Rain,Heavy Rain,120,2013-07-30 11:55:00
7:15 AM,64.4,64.4,100,30.10,1.8,SE,8.1,-,0.41,Rain,Heavy Rain,140,2013-07-30 12:15:00
7:35 AM,64.4,64.4,100,30.10,4.0,ESE,5.8,-,0.61,Rain,Rain,110,2013-07-30 12:35:00
7:55 AM,64.4,64.4,100,30.10,4.0,SE,5.8,-,0.69,Rain,Rain,140,2013-07-30 12:55:00
8:15 AM,64.4,64.4,100,30.10,2.5,SE,6.9,-,0.10,Rain,Heavy Rain,130,2013-07-30 13:15:00
8:35 AM,64.4,64.4,100,30.09,2.0,ESE,5.8,-,0.27,Rain,Heavy Rain,120,2013-07-30 13:35:00
8:55 AM,64.4,64.4,100,30.09,4.0,SE,5.8,-,0.34,Rain,Rain,140,2013-07-30 13:55:00
9:15 AM,66.2,64.4,94,30.08,1.5,SE,6.9,-,0.19,Rain,Heavy Rain,130,2013-07-30 14:15:00
9:35 AM,66.2,64.4,94,30.08,2.5,SE,9.2,-,0.39,Rain,Heavy Rain,140,2013-07-30 14:35:00
9:55 AM,66.2,66.2,100,30.08,2.5,SSE,10.4,-,0.53,Rain,Rain,150,2013-07-30 14:55:00
10:15 AM,66.2,66.2,100,30.07,10.0,SSE,8.1,-,N/A,,Overcast,150,2013-07-30 15:15:00
10:35 AM,66.2,66.2,100,30.07,10.0,SE,6.9,-,N/A,,Overcast,140,2013-07-30 15:35:00
10:55 AM,68.0,66.2,94,30.07,10.0,SE,8.1,-,N/A,,Overcast,140,2013-07-30 15:55:00
11:15 AM,68.0,66.2,94,30.06,10.0,SE,8.1,-,N/A,,Overcast,140,2013-07-30 16:15:00
11:55 AM,69.8,66.2,88,30.07,10.0,SSE,4.6,-,N/A,,Overcast,150,2013-07-30 16:55:00
12:15 PM,69.8,66.2,88,30.06,10.0,SE,4.6,-,N/A,,Overcast,140,2013-07-30 17:15:00
12:35 PM,69.8,68.0,94,30.06,10.0,SE,6.9,-,N/A,,Overcast,130,2013-07-30 17:35:00
1:15 PM,71.6,68.0,88,30.05,10.0,SE,6.9,-,N/A,,Overcast,140,2013-07-30 18:15:00
1:35 PM,71.6,68.0,88,30.05,10.0,SE,4.6,-,N/A,,Overcast,130,2013-07-30 18:35:00
1:55 PM,71.6,68.0,88,30.04,10.0,Calm,Calm,-,N/A,,Overcast,0,2013-07-30 18:55:00
2:15 PM,71.6,68.0,88,30.04,10.0,Calm,Calm,-,N/A,,Overcast,0,2013-07-30 19:15:00
2:35 PM,71.6,69.8,94,30.03,10.0,Calm,Calm,-,N/A,,Overcast,0,2013-07-30 19:35:00
2:55 PM,71.6,69.8,94,30.03,10.0,East,3.5,-,N/A,,Overcast,90,2013-07-30 19:55:00
3:15 PM,71.6,69.8,94,30.03,10.0,Calm,Calm,-,N/A,,Overcast,0,2013-07-30 20:15:00
3:35 PM,71.6,69.8,94,30.03,10.0,ENE,4.6,-,N/A,,Overcast,60,2013-07-30 20:35:00
3:55 PM,71.6,69.8,94,30.03,7.0,Calm,Calm,-,N/A,,Overcast,0,2013-07-30 20:55:00
4:15 PM,71.6,69.8,94,30.03,2.0,Calm,Calm,-,N/A,,Overcast,0,2013-07-30 21:15:00
4:35 PM,69.8,69.8,100,30.03,1.2,NE,4.6,-,N/A,,Overcast,50,2013-07-30 21:35:00
4:55 PM,69.8,69.8,100,30.04,1.0,ENE,3.5,-,N/A,,Overcast,60,2013-07-30 21:55:00
5:15 PM,69.8,69.8,100,30.04,1.0,ENE,5.8,-,N/A,,Overcast,60,2013-07-30 22:15:00
5:35 PM,69.8,69.8,100,30.04,1.0,NE,4.6,-,N/A,,Overcast,50,2013-07-30 22:35:00
5:55 PM,69.8,69.8,100,30.04,1.0,ENE,3.5,-,N/A,,Overcast,60,2013-07-30 22:55:00
6:15 PM,69.8,69.8,100,30.04,1.0,ENE,3.5,-,0.01,,Overcast,60,2013-07-30 23:15:00
6:35 PM,69.8,69.8,100,30.04,1.5,Calm,Calm,-,0.01,,Overcast,0,2013-07-30 23:35:00
6:55 PM,69.8,69.8,100,30.04,2.0,ENE,3.5,-,0.01,,Overcast,60,2013-07-30 23:55:00
7:15 PM,69.8,69.8,100,30.04,2.0,Calm,Calm,-,N/A,,Overcast,0,2013-07-31 00:15:00
7:35 PM,69.8,69.8,100,30.04,2.0,Calm,Calm,-,N/A,,Overcast,0,2013-07-31 00:35:00
7:55 PM,69.8,69.8,100,30.04,2.5,Calm,Calm,-,N/A,,Overcast,0,2013-07-31 00:55:00
8:15 PM,69.8,69.8,100,30.04,2.5,Calm,Calm,-,N/A,,Overcast,0,2013-07-31 01:15:00
8:35 PM,69.8,69.8,100,30.04,2.0,Calm,Calm,-,N/A,,Overcast,0,2013-07-31 01:35:00
8:55 PM,69.8,69.8,100,30.04,1.8,Calm,Calm,-,N/A,,Overcast,0,2013-07-31 01:55:00
9:15 PM,69.8,69.8,100,30.04,1.8,NE,3.5,-,N/A,,Overcast,40,2013-07-31 02:15:00
9:35 PM,69.8,69.8,100,30.05,2.0,Calm,Calm,-,N/A,,Overcast,0,2013-07-31 02:35:00
9:55 PM,69.8,69.8,100,30.06,2.5,North,3.5,-,N/A,,Overcast,10,2013-07-31 02:55:00
10:15 PM,69.8,69.8,100,30.07,2.5,Calm,Calm,-,N/A,,Overcast,0,2013-07-31 03:15:00
10:35 PM,69.8,69.8,100,30.07,3.0,NNW,3.5,-,N/A,,Overcast,340,2013-07-31 03:35:00
10:55 PM,69.8,69.8,100,30.07,3.0,Calm,Calm,-,N/A,,Overcast,0,2013-07-31 03:55:00
11:15 PM,69.8,69.8,100,30.07,2.5,NNW,3.5,-,N/A,,Overcast,340,2013-07-31 04:15:00
11:35 PM,69.8,69.8,100,30.07,2.5,NNW,4.6,-,N/A,,Overcast,330,2013-07-31 04:35:00
11:55 PM,68.0,68.0,100,30.06,2.5,North,3.5,-,N/A,,Overcast,350,2013-07-31 04:55:00